GW3468 Weather Reports


Display with metric or nautical units.
time (UTC)temp
F
wind
direction
speed
MPH
gust
MPH
rain 1hr
in
rain 24hr
in
rain mn
in
humidity
%
barometer
mb
20260505075034 58 0.0 0.0 0.00 0.00 0.00 64 1012.7
20260505074532 59 0.0 0.0 0.00 0.00 0.00 63 1012.9
20260505074030 60 191 0.0 1.0 0.00 0.00 0.00 62 1012.8
20260505073529 60 194 0.0 1.0 0.00 0.00 0.00 62 1012.9
20260505073027 60 204 0.0 2.0 0.00 0.00 0.00 61 1012.8
20260505072525 60 187 0.0 1.0 0.00 0.00 0.00 61 1012.8
20260505072024 61 193 0.0 3.0 0.00 0.00 0.00 60 1013.0
20260505071522 61 199 1.0 2.0 0.00 0.00 0.00 60 1013.0
20260505071020 61 205 1.0 3.0 0.00 0.00 0.00 59 1013.0
20260505070519 62 211 1.0 3.0 0.00 0.00 0.00 58 1013.0
20260505070017 62 229 2.0 4.0 0.00 0.00 0.00 57 1012.9
20260505065535 62 245 1.0 4.0 0.00 0.00 0.00 57 1013.1
20260505065033 62 214 1.0 2.0 0.00 0.00 0.00 57 1013.0
20260505064552 62 211 1.0 2.0 0.00 0.00 0.00 57 1012.9
20260505064030 62 239 1.0 3.0 0.00 0.00 0.00 57 1013.0
20260505063528 62 224 1.0 6.0 0.00 0.00 0.00 57 1013.0
20260505063027 62 212 2.0 4.0 0.00 0.00 0.00 57 1013.0
20260505062525 63 204 1.0 6.0 0.00 0.00 0.00 57 1012.9
20260505062024 63 240 2.0 6.0 0.00 0.00 0.00 56 1012.9
20260505061522 63 250 2.0 3.0 0.00 0.00 0.00 57 1013.0
20260505061020 63 217 2.0 3.0 0.00 0.00 0.00 57 1012.9
20260505060518 62 227 1.0 4.0 0.00 0.00 0.00 57 1012.9
20260505060017 62 212 2.0 4.0 0.00 0.00 0.00 57 1012.9
20260505055535 62 230 2.0 6.0 0.00 0.00 0.00 58 1012.9
20260505055114 62 218 1.0 4.0 0.00 0.00 0.00 59 1012.8
20260505054532 62 218 1.0 3.0 0.00 0.00 0.00 60 1012.9
20260505054030 61 186 1.0 3.0 0.00 0.00 0.00 60 1012.9
20260505053528 61 179 1.0 3.0 0.00 0.00 0.00 60 1012.9
20260505053027 62 201 1.0 2.0 0.00 0.00 0.00 60 1012.9
20260505052545 62 215 1.0 4.0 0.00 0.00 0.00 59 1012.9
20260505052023 62 225 1.0 3.0 0.00 0.00 0.00 60 1013.0
20260505051521 62 209 1.0 2.0 0.00 0.00 0.00 59 1013.0
20260505051020 62 216 1.0 2.0 0.00 0.00 0.00 59 1012.8
20260505050518 62 199 1.0 2.0 0.00 0.00 0.00 60 1012.8
20260505041521 62 175 0.0 1.0 0.00 0.00 0.00 60 1012.5
20260505041019 62 169 0.0 1.0 0.00 0.00 0.00 60 1012.6
20260505040518 62 220 1.0 3.0 0.00 0.00 0.00 60 1012.7
20260505040016 62 188 0.0 1.0 0.00 0.00 0.00 59 1012.7
20260505035534 63 213 1.0 2.0 0.00 0.00 0.00 59 1012.7
20260505035033 63 207 1.0 1.0 0.00 0.00 0.00 59 1012.8
20260505034631 63 223 1.0 3.0 0.00 0.00 0.00 59 1012.7
20260505034030 63 205 0.0 2.0 0.00 0.00 0.00 58 1012.8
20260505033528 63 183 0.0 1.0 0.00 0.00 0.00 58 1012.8
20260505033026 63 216 0.0 2.0 0.00 0.00 0.00 58 1012.7
20260505032525 63 219 0.0 2.0 0.00 0.00 0.00 58 1012.8
20260505032023 63 188 0.0 1.0 0.00 0.00 0.00 57 1012.9
20260505031521 64 184 0.0 1.0 0.00 0.00 0.00 57 1012.8
20260505031019 64 197 0.0 2.0 0.00 0.00 0.00 57 1012.8
20260505030518 64 151 0.0 1.0 0.00 0.00 0.00 56 1012.9
20260505030016 64 0.0 0.0 0.00 0.00 0.00 56 1012.9
20260505025534 65 171 0.0 1.0 0.00 0.00 0.00 55 1012.9
20260505025033 65 188 0.0 1.0 0.00 0.00 0.00 54 1012.8
20260505024531 66 205 1.0 3.0 0.00 0.00 0.00 53 1012.9
20260505024030 66 193 0.0 2.0 0.00 0.00 0.00 53 1013.0
20260505023528 67 191 1.0 2.0 0.00 0.00 0.00 52 1013.0
20260505023026 67 221 1.0 4.0 0.00 0.00 0.00 52 1012.9
20260505022524 67 210 1.0 3.0 0.00 0.00 0.00 52 1012.9
20260505022022 67 213 1.0 2.0 0.00 0.00 0.00 51 1012.9
20260505021521 67 227 1.0 6.0 0.00 0.00 0.00 51 1012.9
20260505021020 67 227 1.0 3.0 0.00 0.00 0.00 51 1012.9
20260505020517 67 194 1.0 2.0 0.00 0.00 0.00 52 1012.8
20260505020016 68 194 0.0 3.0 0.00 0.00 0.00 52 1012.8
20260505015534 68 218 2.0 6.0 0.00 0.00 0.00 51 1012.8
20260505015053 68 237 2.0 6.0 0.00 0.00 0.00 52 1012.8
20260505014531 68 205 1.0 4.0 0.00 0.00 0.00 52 1012.8
20260505014029 68 220 1.0 4.0 0.00 0.00 0.00 52 1012.7
20260505013528 68 225 2.0 4.0 0.00 0.00 0.00 51 1012.7
20260505013026 68 189 1.0 2.0 0.00 0.00 0.00 51 1012.7
20260505012524 68 227 1.0 4.0 0.00 0.00 0.00 51 1012.6
20260505012022 68 215 1.0 4.0 0.00 0.00 0.00 51 1012.5
20260505011521 68 198 0.0 1.0 0.00 0.00 0.00 51 1012.4
20260505011019 69 195 1.0 4.0 0.00 0.00 0.00 51 1012.3
20260505010558 69 228 1.0 7.0 0.00 0.00 0.00 50 1012.3
20260505010036 69 209 1.0 3.0 0.00 0.00 0.00 50 1012.3
20260505005534 70 229 2.0 7.0 0.00 0.00 0.00 49 1012.2
20260505005032 70 204 1.0 3.0 0.00 0.00 0.00 49 1012.1
20260505004531 70 232 2.0 6.0 0.00 0.00 0.00 48 1012.0
20260505004029 70 229 2.0 7.0 0.00 0.00 0.00 48 1012.1
20260505003527 71 221 2.0 8.0 0.00 0.00 0.00 47 1012.1
20260505003046 71 219 2.0 4.0 0.00 0.00 0.00 47 1012.2
20260505002524 71 219 2.0 6.0 0.00 0.00 0.00 46 1012.0
20260505002022 71 213 2.0 4.0 0.00 0.00 0.00 46 1012.0
20260505001520 72 192 2.0 4.0 0.00 0.00 0.00 45 1012.0
20260505001019 72 224 2.0 7.0 0.00 0.00 0.00 44 1011.9
20260505000517 72 221 3.0 11.0 0.00 0.00 0.00 45 1012.0
20260505000035 72 222 1.0 8.0 0.00 0.00 0.00 44 1012.0
20260504235534 73 234 2.0 9.0 0.00 0.00 0.00 44 1011.9
20260504235032 73 208 1.0 4.0 0.00 0.00 0.00 45 1011.9
20260504234530 73 248 2.0 7.0 0.00 0.00 0.00 45 1011.9
20260504234028 73 230 1.0 3.0 0.00 0.00 0.00 45 1012.0
20260504233547 73 190 2.0 6.0 0.00 0.00 0.00 45 1011.9
20260504233025 73 205 2.0 6.0 0.00 0.00 0.00 44 1011.9
20260504232523 74 220 1.0 3.0 0.00 0.00 0.00 44 1012.0
20260504232022 74 207 1.0 4.0 0.00 0.00 0.00 44 1012.0
20260504231520 74 201 1.0 4.0 0.00 0.00 0.00 44 1011.8
20260504231018 74 237 1.0 7.0 0.00 0.00 0.00 43 1011.9
20260504230517 75 195 1.0 6.0 0.00 0.00 0.00 43 1011.9
20260504230055 74 227 2.0 7.0 0.00 0.00 0.00 42 1011.9
20260504225533 74 242 2.0 9.0 0.00 0.00 0.00 43 1011.8
20260504225032 74 224 2.0 4.0 0.00 0.00 0.00 43 1011.9
20260504224550 74 234 2.0 6.0 0.00 0.00 0.00 42 1011.9
20260504224029 74 249 3.0 7.0 0.00 0.00 0.00 41 1012.0
20260504223526 75 248 2.0 7.0 0.00 0.00 0.00 42 1012.0
20260504223025 75 221 1.0 4.0 0.00 0.00 0.00 42 1012.1
20260504222523 75 237 3.0 8.0 0.00 0.00 0.00 41 1012.0
20260504222021 75 223 2.0 6.0 0.00 0.00 0.00 41 1012.1
20260504221540 75 224 2.0 6.0 0.00 0.00 0.00 41 1012.1
20260504221018 75 217 2.0 6.0 0.00 0.00 0.00 41 1012.1
20260504220516 76 211 2.0 7.0 0.00 0.00 0.00 41 1012.0
20260504220035 77 247 3.0 8.0 0.00 0.00 0.00 39 1012.1
20260504215613 77 216 1.0 3.0 0.00 0.00 0.00 38 1012.1
20260504215031 77 194 2.0 7.0 0.00 0.00 0.00 38 1012.1
20260504214529 77 218 2.0 4.0 0.00 0.00 0.00 38 1012.2
20260504214028 77 239 3.0 10.0 0.00 0.00 0.00 38 1012.1
20260504213526 78 239 3.0 8.0 0.00 0.00 0.00 37 1012.2
20260504213024 78 210 2.0 6.0 0.00 0.00 0.00 38 1012.1
20260504212523 77 187 2.0 6.0 0.00 0.00 0.00 39 1012.1
20260504212021 78 214 2.0 7.0 0.00 0.00 0.00 39 1012.2
20260504211519 78 197 2.0 4.0 0.00 0.00 0.00 39 1012.2
20260504211038 78 219 2.0 8.0 0.00 0.00 0.00 39 1012.2
20260504210516 78 264 2.0 9.0 0.00 0.00 0.00 39 1012.2
20260504210054 77 218 2.0 7.0 0.00 0.00 0.00 40 1012.3
20260504205533 78 243 3.0 11.0 0.00 0.00 0.00 40 1012.4
20260504205051 78 272 3.0 9.0 0.00 0.00 0.00 40 1012.5
20260504204530 78 195 2.0 6.0 0.00 0.00 0.00 40 1012.5
20260504204028 78 211 2.0 8.0 0.00 0.00 0.00 41 1012.7
20260504203526 78 173 2.0 4.0 0.00 0.00 0.00 41 1012.6
20260504203045 78 192 2.0 4.0 0.00 0.00 0.00 40 1012.7
20260504202523 78 211 2.0 3.0 0.00 0.00 0.00 41 1012.6
20260504202021 78 205 2.0 4.0 0.00 0.00 0.00 40 1012.9
20260504201520 78 215 2.0 6.0 0.00 0.00 0.00 40 1012.9
20260504201119 77 231 1.0 7.0 0.00 0.00 0.00 41 1012.9
20260504200536 77 197 2.0 7.0 0.00 0.00 0.00 42 1013.0
20260504200055 78 206 2.0 9.0 0.00 0.00 0.00 41 1013.0
20260504195533 79 196 2.0 3.0 0.00 0.00 0.00 41 1013.1
20260504195031 78 230 2.0 7.0 0.00 0.00 0.00 41 1013.1
20260504194550 78 203 1.0 3.0 0.00 0.00 0.00 41 1013.2
20260504194028 77 177 2.0 3.0 0.00 0.00 0.00 42 1013.3
20260504193546 76 176 1.0 3.0 0.00 0.00 0.00 42 1013.3
20260504193125 76 242 3.0 10.0 0.00 0.00 0.00 42 1013.4
20260504192523 77 236 3.0 8.0 0.00 0.00 0.00 42 1013.5
20260504192021 77 208 2.0 3.0 0.00 0.00 0.00 42 1013.4
20260504191520 77 234 2.0 4.0 0.00 0.00 0.00 42 1013.7
20260504191038 76 232 2.0 7.0 0.00 0.00 0.00 43 1013.7
20260504190536 76 242 3.0 7.0 0.00 0.00 0.00 42 1013.8
20260504190055 76 253 2.0 7.0 0.00 0.00 0.00 42 1013.8
20260504185533 77 217 1.0 9.0 0.00 0.00 0.00 42 1013.9
20260504185031 76 181 1.0 4.0 0.00 0.00 0.00 43 1013.9
20260504184529 76 225 2.0 7.0 0.00 0.00 0.00 43 1013.9
20260504184028 76 229 2.0 8.0 0.00 0.00 0.00 42 1014.1
20260504183526 75 214 2.0 6.0 0.00 0.00 0.00 43 1014.3
20260504183025 76 253 3.0 8.0 0.00 0.00 0.00 42 1014.4
20260504182523 76 171 2.0 7.0 0.00 0.00 0.00 42 1014.4
20260504182021 77 186 2.0 6.0 0.00 0.00 0.00 41 1014.4
20260504181519 76 210 1.0 4.0 0.00 0.00 0.00 43 1014.4
20260504181018 75 199 1.0 6.0 0.00 0.00 0.00 43 1014.5
20260504180516 74 233 2.0 8.0 0.00 0.00 0.00 43 1014.7
20260504180034 75 277 4.0 13.0 0.00 0.00 0.00 42 1014.6
20260504175533 75 211 3.0 14.0 0.00 0.00 0.00 43 1014.7
20260504175031 73 235 2.0 6.0 0.00 0.00 0.00 44 1014.7
20260504174529 73 251 3.0 8.0 0.00 0.00 0.00 44 1014.8
20260504174028 73 248 2.0 6.0 0.00 0.00 0.00 43 1015.0
20260504173526 73 247 2.0 7.0 0.00 0.00 0.00 43 1015.0
20260504173024 72 244 3.0 9.0 0.00 0.00 0.00 44 1015.0
20260504172522 73 241 3.0 9.0 0.00 0.00 0.00 43 1015.1
20260504172021 72 246 4.0 14.0 0.00 0.00 0.00 44 1015.1
20260504171519 71 259 2.0 11.0 0.00 0.00 0.00 44 1015.2
20260504171018 71 240 4.0 17.0 0.00 0.00 0.00 44 1015.2
20260504170516 71 242 5.0 15.0 0.00 0.00 0.00 44 1015.3
20260504151057 65 232 2.0 8.0 0.00 0.00 0.00 50 1016.9
20260504150535 65 219 2.0 9.0 0.00 0.00 0.00 49 1016.8
20260504141016 63 156 1.0 4.0 0.00 0.00 0.00 50 1017.5
20260504140535 62 169 1.0 3.0 0.00 0.00 0.00 51 1017.5
20260504130534 56 205 1.0 2.0 0.00 0.00 0.00 60 1017.4
20260504110534 42 0.0 0.0 0.00 0.00 0.00 89 1016.4
20260504100554 42 0.0 0.0 0.00 0.00 0.00 87 1016.6
20260504100112 42 0.0 0.0 0.00 0.00 0.00 87 1016.5
20260504081557 44 0.0 0.0 0.00 0.00 0.00 82 1016.7
20260504081035 44 0.0 0.0 0.00 0.00 0.00 82 1016.8
20260504080533 44 0.0 0.0 0.00 0.00 0.00 82 1016.7